Regional Weather Roundup
Issued by NWS

Home | Current Version | Previous Version | Text Only | Print | Product List | Glossary Off
Versions: 1 2 3 4 5 6 7 8 9 10 11 12 13 14 15 16 17 18 19 20 21 22 23 24 25 26 27 28 29 30 31 32 33 34 35 36 37 38 39 40 41 42 43 44 45 46 47 48 49 50

000
ASUS43 KBIS 291010
RWRND

NORTH DAKOTA REGIONAL WEATHER ROUNDUP
NATIONAL WEATHER SERVICE BISMARCK ND
500 AM CDT SAT AUG 29 2015

NOTE: "FAIR" INDICATES FEW OR NO CLOUDS BELOW 12,000 FEET WITH NO
SIGNIFICANT WEATHER AND/OR OBSTRUCTIONS TO VISIBILITY.


NDZ001>003-009>011-017-291100-
NORTHWEST NORTH DAKOTA

CITY           SKY/WX    TMP DP  RH WIND       PRES   REMARKS
WILLISTON      CLOUDY    55  50  83 SW3       29.92S HAZE
MINOT          CLOUDY    63  53  70 SW10      29.89R HAZE
MINOT AFB      PTCLDY    58  56  95 W7        29.88S
$$

NDZ018>021-031>035-040>046-291100-
SOUTHWEST NORTH DAKOTA

CITY           SKY/WX    TMP DP  RH WIND       PRES   REMARKS
BISMARCK       MOCLDY    60  59  96 CALM      29.92S
DICKINSON      CLOUDY    59  46  62 CALM      29.96S HAZE
GARRISON         N/A     56  52  86 CALM      29.92R
HETTINGER ARPT CLOUDY    53  47  79 CALM      30.01S HAZE
$$

NDZ004>008-012>016-024-026-027-054-291100-
NORTHEAST NORTH DAKOTA

CITY           SKY/WX    TMP DP  RH WIND       PRES   REMARKS
GRAND FORKS    CLEAR     63  62  97 SE5       29.89R
GRND FRKS AFB  FOG       60  60  99 S2        29.89S VSB 1
DEVILS LAKE      N/A     61  55  82 CALM      29.89S VSB 1/2
$$

NDZ022-023-025-028>030-036>039-047>053-291100-
SOUTHEAST NORTH DAKOTA

CITY           SKY/WX    TMP DP  RH WIND       PRES   REMARKS
FARGO          CLEAR     65  61  87 S9        29.93R
JAMESTOWN      CLEAR     63  61  93 S6        29.91R
$$



USA.gov is the U.S. government's official web portal to all federal, state and local government web resources and services.